SVA036 KIAD-OEJN

Flight info

Callsign SVA036
Flight time N/A
Altitude 33000
Route JCOBY4 SWANN DCT BROSS Q419 RBV Q22 FOXWD DCT WITCH DCT ALLEX DCT JOOPY/M082F350 DCT 49N050W 5030N04000W 51N030W 5030N02000W DCT SOMAX DCT ATSUR DCT TAKAS/N0469F350 DCT ALUTA/N0471F370 DCT KORER DCT LEMKA DCT BEBIX DCT LERGA DCT TOZOT DCT OTROT DCT RETNO DCT KOLON DCT RAPUR DCT RATAP DCT BTA DCT DOKAR DCT SUNEV DCT KONUT/N0466F390 DCT NAXES DCT BELIX DCT SALUN N705 BOPIX N710 TAKRI P751 LXR M999 MUVOL
Aircraft B77W/H-SDE2E3FGHIRWXY/L

Departure

Time 2026-05-05 21:58
Airport Washington Dulles International Airport (KIAD)

Arrival

Time N/A
Airport King Abdulaziz International Airport (OEJN)
Time Latitude Longitude Altitude Speed Heading
2026-05-05 21:41 38.94490 -77.45342 297 ft 0 kts
2026-05-05 21:50 38.94467 -77.45347 299 ft 4 kts
2026-05-05 21:50 38.94440 -77.45351 298 ft 4 kts
2026-05-05 21:50 38.94416 -77.45352 300 ft 4 kts 333°
2026-05-05 21:50 38.94408 -77.45336 298 ft 4 kts 249°
2026-05-05 21:51 38.94418 -77.45304 300 ft 4 kts 259°
2026-05-05 21:51 38.94419 -77.45288 299 ft 1 kts 271°
2026-05-05 21:51 38.94419 -77.45287 299 ft 0 kts 271°
2026-05-05 21:53 38.94419 -77.45294 301 ft 2 kts 270°
2026-05-05 21:54 38.94419 -77.45339 300 ft 8 kts 270°
2026-05-05 21:54 38.94420 -77.45425 300 ft 12 kts 270°
2026-05-05 21:54 38.94418 -77.45567 300 ft 18 kts 259°
2026-05-05 21:54 38.94323 -77.45612 302 ft 16 kts 182°
2026-05-05 21:55 38.94215 -77.45615 300 ft 14 kts 179°
2026-05-05 21:55 38.94198 -77.45614 300 ft 0 kts 179°
2026-05-05 21:55 38.94192 -77.45614 301 ft 5 kts 179°
2026-05-05 21:55 38.94094 -77.45613 300 ft 20 kts 180°
2026-05-05 21:56 38.93954 -77.45616 299 ft 20 kts 181°
2026-05-05 21:56 38.93814 -77.45618 300 ft 20 kts 181°
2026-05-05 21:56 38.93675 -77.45642 302 ft 20 kts 198°
2026-05-05 21:56 38.93543 -77.45702 301 ft 20 kts 199°
2026-05-05 21:57 38.93436 -77.45785 300 ft 15 kts 249°
2026-05-05 21:57 38.93458 -77.45918 300 ft 20 kts 289°
2026-05-05 21:57 38.93571 -77.46303 305 ft 81 kts 290°
2026-05-05 21:57 38.93857 -77.47282 307 ft 152 kts 290°
2026-05-05 21:58 38.94292 -77.48783 462 ft 193 kts 285°
2026-05-05 21:58 38.94755 -77.50365 1303 ft 183 kts 281°
2026-05-05 21:58 38.95150 -77.51914 2194 ft 180 kts 279°
2026-05-05 21:58 38.95540 -77.53453 2997 ft 183 kts 280°
2026-05-05 21:59 38.95948 -77.55001 3676 ft 183 kts 282°
2026-05-05 21:59 38.96368 -77.56562 4184 ft 187 kts 280°
2026-05-05 21:59 38.96928 -77.58080 4680 ft 195 kts 304°
2026-05-05 21:59 38.98019 -77.59201 5117 ft 212 kts 324°
2026-05-05 22:00 38.99523 -77.59810 5193 ft 245 kts 355°
2026-05-05 22:00 39.01242 -77.59411 5556 ft 256 kts 17°
2026-05-05 22:00 39.02897 -77.58611 6009 ft 265 kts 19°
2026-05-05 22:00 39.04646 -77.57734 6497 ft 276 kts 19°
2026-05-05 22:01 39.06464 -77.56798 6924 ft 289 kts 22°
2026-05-05 22:01 39.08078 -77.55164 7249 ft 305 kts 57°
2026-05-05 22:01 39.08836 -77.52633 7807 ft 306 kts 84°
2026-05-05 22:01 39.09087 -77.49879 8378 ft 314 kts 85°
2026-05-05 22:02 39.09360 -77.47063 9122 ft 319 kts 83°
2026-05-05 22:02 39.09686 -77.44220 9875 ft 324 kts 82°
2026-05-05 22:02 39.10060 -77.41325 10418 ft 336 kts 80°
2026-05-05 22:02 39.10486 -77.38263 10616 ft 361 kts 80°
2026-05-05 22:03 39.10964 -77.34979 10836 ft 385 kts 79°
2026-05-05 22:03 39.11484 -77.31498 11185 ft 404 kts 79°
2026-05-05 22:03 39.12020 -77.27941 11893 ft 411 kts 79°
2026-05-05 22:03 39.12558 -77.24374 12672 ft 417 kts 79°
2026-05-05 22:04 39.13119 -77.20640 13487 ft 423 kts 79°
2026-05-05 22:04 39.13612 -77.16902 14223 ft 427 kts 84°
2026-05-05 22:04 39.13793 -77.13071 14986 ft 430 kts 90°
2026-05-05 22:04 39.13845 -77.09262 15734 ft 433 kts 90°
2026-05-05 22:05 39.13893 -77.05372 16476 ft 438 kts 91°
2026-05-05 22:05 39.13944 -77.01435 17206 ft 443 kts 90°
2026-05-05 22:05 39.14003 -76.97442 17949 ft 447 kts 90°
2026-05-05 22:05 39.14068 -76.93411 18602 ft 452 kts 90°
2026-05-05 22:06 39.14136 -76.89355 19231 ft 456 kts 91°
2026-05-05 22:06 39.14205 -76.85306 19868 ft 459 kts 90°
2026-05-05 22:06 39.14275 -76.81123 20495 ft 464 kts 90°
2026-05-05 22:06 39.14344 -76.76951 21117 ft 468 kts 90°
2026-05-05 22:07 39.14413 -76.72750 21696 ft 471 kts 91°
2026-05-05 22:07 39.14480 -76.68501 22285 ft 476 kts 91°
2026-05-05 22:07 39.14545 -76.64234 22863 ft 480 kts 91°
2026-05-05 22:07 39.14610 -76.59917 23449 ft 484 kts 91°
2026-05-05 22:08 39.14673 -76.55567 23932 ft 487 kts 91°
2026-05-05 22:08 39.14735 -76.51247 24397 ft 491 kts 90°
2026-05-05 22:08 39.14796 -76.46845 24907 ft 493 kts 90°
2026-05-05 22:08 39.14856 -76.42412 25446 ft 495 kts 90°
2026-05-05 22:09 39.14915 -76.37970 25907 ft 498 kts 89°
2026-05-05 22:09 39.14972 -76.33485 26329 ft 502 kts 89°
2026-05-05 22:09 39.15029 -76.28988 26748 ft 506 kts 89°
2026-05-05 22:09 39.15090 -76.24454 27167 ft 509 kts 88°
2026-05-05 22:10 39.15349 -76.19901 27592 ft 511 kts 82°
2026-05-05 22:10 39.15887 -76.15368 28005 ft 514 kts 80°
2026-05-05 22:10 39.16463 -76.10811 28415 ft 516 kts 79°
2026-05-05 22:10 39.17027 -76.06226 28800 ft 519 kts 80°
2026-05-05 22:11 39.17568 -76.01622 29148 ft 522 kts 80°
2026-05-05 22:11 39.18096 -75.96985 29590 ft 523 kts 80°
2026-05-05 22:11 39.18833 -75.92425 29972 ft 519 kts 69°
2026-05-05 22:11 39.20312 -75.88209 30315 ft 514 kts 56°
2026-05-05 22:12 39.22384 -75.84502 30725 ft 507 kts 44°
2026-05-05 22:12 39.24911 -75.81418 31116 ft 494 kts 34°
2026-05-05 22:12 39.27457 -75.78393 31321 ft 503 kts 42°
2026-05-05 22:12 39.28988 -75.76148 31722 ft 499 kts 44°
2026-05-05 22:13 39.31204 -75.72737 32401 ft 494 kts 44°
2026-05-05 22:13 39.33410 -75.69342 32750 ft 494 kts 43°
2026-05-05 22:13 39.35640 -75.65951 32849 ft 499 kts 43°
2026-05-05 22:14 39.40195 -75.59131 32888 ft 501 kts 43°
2026-05-05 22:14 39.44741 -75.52373 32887 ft 495 kts 42°
2026-05-05 22:15 39.49261 -75.45658 32893 ft 494 kts 42°
2026-05-05 22:15 39.53770 -75.38943 32895 ft 493 kts 43°